Wind_Speed
12 12 12 13 13 13 13 13 12 11 10 10 9 8 8 7 7 6 6 6 6 6 6 6 6 7 7 7 8 9 9 10 11 11 11 12 12 13 14 14 14 15 16
11 11 12 13 13 12 12 12 11 11 11 10 10 9 8 8 7 7 7 7 6 7 7 7 7 8 8 8 9 10 11 11 12 12 13 13 13 14 14 15 16 17 17
11 11 11 12 12 12 12 12 12 11 11 11 10 10 10 9 8 8 8 8 8 8 9 9 9 9 10 10 11 11 12 13 13 14 14 14 15 15 16 16 17 18 19
12 12 12 12 12 12 12 12 12 12 12 11 11 11 10 9 9 10 9 9 10 10 10 11 11 12 12 12 13 13 14 14 15 15 16 16 16 17 17 18 18 19 20
12 13 13 13 12 12 12 12 12 13 13 12 12 11 11 11 11 11 11 11 11 12 13 13 13 14 14 15 15 15 16 16 17 17 17 18 18 19 19 20 20 21 22
12 13 14 14 13 13 12 12 13 13 13 12 12 12 12 12 12 12 13 13 13 14 15 15 16 16 16 17 17 18 18 19 19 19 20 20 21 21 21 22 22 23 24
13 13 14 14 13 13 13 13 13 13 13 14 14 14 14 14 14 14 14 15 15 16 17 17 18 18 18 19 19 20 20 21 21 22 22 23 23 24 24 24 25 25 26
14 14 13 13 13 13 14 14 14 14 15 15 15 15 15 15 16 16 16 17 17 18 18 19 20 20 20 21 21 22 23 23 24 24 24 25 26 26 27 28 28 29 29
14 15 15 15 15 15 15 15 15 15 16 17 17 17 17 18 18 18 18 19 19 20 20 21 22 22 23 23 24 24 25 26 26 27 27 28 28 29 30 31 31 31 31
16 16 16 17 17 17 17 17 17 17 18 18 18 19 19 19 19 20 21 21 22 22 23 23 24 25 25 26 26 27 28 28 29 29 30 31 31 32 33 33 34 34 34
18 17 17 18 18 18 18 18 18 19 19 19 20 20 20 21 21 22 23 23 23 24 25 25 26 26 26 27 28 28 29 30 31 31 32 33 34 35 36 36 37 37 38
19 19 19 19 19 19 19 20 20 20 21 21 21 22 22 23 24 24 25 25 26 26 26 27 27 28 28 28 29 30 31 32 32 33 34 35 36 37 38 38 39 39 40
21 21 21 21 21 21 21 22 21 21 22 23 23 24 24 25 25 26 27 27 27 28 28 29 29 30 30 31 32 33 33 34 35 36 36 37 38 39 40 40 41 42 42
23 23 23 23 23 23 23 23 23 23 24 25 26 26 26 26 27 27 28 28 29 30 30 31 31 32 34 34 35 36 36 36 37 38 39 40 40 41 41 42 43 43 43
24 24 24 24 25 24 25 25 25 26 26 27 27 28 28 29 29 30 30 32 32 33 33 34 35 36 36 37 38 38 39 39 40 41 41 42 42 43 43 44 44 44 44
26 26 26 26 26 27 27 27 28 28 28 29 29 30 31 32 32 33 33 34 35 36 36 36 37 38 39 40 40 41 41 42 42 42 43 43 44 44 45 46 45 45 45
27 27 27 28 28 28 29 29 30 30 31 32 32 33 33 34 35 35 36 37 37 38 38 39 40 41 41 41 42 42 43 43 44 44 44 45 46 46 46 46 45 45 45
27 27 27 28 29 30 31 31 31 32 32 33 34 34 34 35 36 38 38 39 39 40 40 41 41 41 42 43 44 45 45 45 45 45 45 46 47 47 47 47 47 46 46
27 27 28 29 30 31 32 32 32 33 34 34 35 36 37 38 38 39 40 41 41 41 41 41 42 43 44 44 45 46 46 46 46 47 47 47 47 47 47 47 47 47 47
27 28 28 30 31 32 33 34 33 34 35 36 37 38 38 39 40 40 40 40 41 41 42 43 43 44 45 45 46 47 47 47 48 48 48 47 47 47 47 47 48 48 48
29 30 30 31 32 33 33 34 35 36 37 38 39 39 40 40 40 41 41 42 42 43 44 45 45 45 46 47 47 46 46 47 47 47 47 47 47 47 48 48 48 48 48
30 31 32 32 33 34 34 35 36 38 38 39 39 40 41 41 42 43 44 44 44 45 45 46 46 47 47 47 46 46 45 45 46 47 47 47 47 48 48 48 47 47 46
30 31 32 34 34 35 36 36 36 37 38 39 40 41 42 43 44 45 45 45 46 46 46 47 46 46 46 46 46 46 46 46 46 47 47 47 47 47 47 47 46 45 44
31 32 34 35 36 36 36 36 37 38 39 41 42 43 44 44 45 46 46 47 47 46 46 47 47 46 46 46 47 47 47 46 46 47 47 47 47 46 46 45 44 43 43
32 33 34 34 35 36 37 38 40 41 42 43 44 44 44 44 45 46 46 46 46 47 47 46 46 45 45 46 46 46 46 46 46 46 46 46 45 44 43 42 41 41 41
33 33 34 35 36 38 39 40 41 42 43 43 43 43 43 44 45 46 46 46 45 46 46 45 45 45 45 45 45 45 44 44 44 44 44 43 42 41 41 40 39 39 38
Wind_Direction
205 204 202 200 201 203 206 208 211 216 218 219 222 228 237 248 255 256 262 260 265 268 272 276 279 283 285 286 291 294 297 299 300 299 299 300 298 297 295 296 295 296 296
201 202 204 203 203 206 209 212 216 217 219 222 227 234 242 250 255 257 262 264 265 268 273 278 280 283 285 286 289 293 297 299 300 300 299 299 299 300 299 297 297 296 296
205 205 203 203 206 210 213 217 220 221 224 229 236 241 246 251 253 258 263 264 267 271 275 279 282 284 285 286 289 292 295 298 298 298 299 300 300 301 301 299 297 297 296
211 209 207 207 210 213 216 221 223 225 228 232 238 244 248 250 254 259 264 267 270 274 278 280 281 283 284 286 289 291 293 294 296 296 296 297 298 300 300 301 299 298 297
217 214 212 212 215 220 223 224 228 230 232 236 241 244 247 251 257 263 267 270 273 277 280 282 283 283 284 285 288 289 291 292 293 294 295 295 295 297 298 299 299 298 297
222 220 219 221 223 225 227 231 233 235 238 241 244 248 251 255 261 267 270 272 276 279 281 283 285 285 285 286 287 289 290 291 292 292 293 293 293 294 296 297 297 297 297
226 225 225 225 226 230 233 235 238 242 245 247 249 253 256 261 265 269 271 274 277 281 283 284 286 286 286 286 288 289 290 290 290 290 291 291 292 292 293 294 295 295 296
228 229 229 229 231 234 238 241 245 249 251 254 256 259 262 265 268 270 273 276 278 281 284 285 287 288 287 287 287 288 289 289 289 289 290 290 290 291 292 293 294 294 294
232 232 234 236 239 241 243 247 250 254 256 258 259 262 265 267 270 272 275 277 279 281 283 284 285 286 286 286 287 288 288 289 288 288 289 290 290 291 293 294 294 294 294
236 238 239 242 244 246 249 252 255 256 259 261 263 265 267 270 271 273 275 277 279 280 281 283 285 286 286 287 287 288 288 289 289 288 288 289 290 291 292 292 293 293 292
241 243 245 246 247 249 252 257 259 259 261 263 265 267 269 271 273 274 275 277 280 282 283 283 285 285 286 288 288 289 290 290 290 289 289 290 290 290 290 291 291 291 291
244 246 248 250 251 253 255 258 260 262 263 264 266 269 270 272 274 274 276 278 279 281 283 283 285 286 286 287 288 290 290 291 291 291 291 291 290 291 292 292 292 291 291
245 248 250 252 254 257 258 259 261 264 265 265 267 269 271 274 275 276 277 277 278 280 281 283 284 285 286 287 288 290 290 291 291 292 292 292 292 292 293 293 293 292 291
248 251 253 254 256 258 260 260 262 264 266 268 270 271 273 276 277 278 278 278 279 280 281 282 283 284 286 286 288 290 290 290 291 292 292 292 292 292 293 294 293 292 291
250 253 255 256 257 258 260 262 265 267 269 269 271 272 273 276 278 279 280 280 280 281 282 283 284 284 285 286 287 288 289 290 291 292 292 292 293 292 292 293 293 293 292
251 253 254 256 257 259 263 265 265 268 270 270 272 274 276 278 279 280 282 283 284 283 282 283 283 283 285 286 287 288 289 290 291 292 293 293 294 294 293 293 292 292 292
253 254 255 258 260 262 264 266 267 267 270 271 273 275 278 279 280 281 282 283 284 283 282 283 283 285 286 286 288 289 290 291 291 292 292 293 293 293 293 293 292 292 292
253 255 258 261 263 264 265 267 269 271 273 274 275 276 277 279 280 281 282 284 285 284 283 283 284 285 286 287 288 289 290 291 291 292 292 292 292 292 292 292 292 292 291
255 257 257 261 264 266 267 267 270 272 274 275 277 277 277 278 279 280 282 284 285 285 285 285 285 286 287 287 288 289 290 290 290 290 290 291 292 292 292 292 292 292 291
256 257 259 261 264 266 268 269 271 274 276 277 279 279 280 281 281 282 284 285 285 285 286 287 287 287 287 288 289 290 290 290 290 290 290 290 291 291 292 292 293 292 292
257 258 261 264 267 271 272 273 275 277 278 279 280 282 282 282 282 282 283 284 285 286 287 287 287 288 289 290 290 290 290 290 290 290 290 291 291 292 292 292 293 293 293
259 262 264 267 270 273 275 276 278 279 280 281 283 283 283 283 283 284 284 284 285 285 286 287 288 289 289 290 290 289 289 289 289 289 290 291 291 292 293 293 293 293 293
264 266 267 270 272 274 276 277 279 280 281 283 284 284 284 284 284 284 284 284 285 286 287 288 289 289 289 289 289 289 289 289 289 290 290 291 292 292 293 293 293 292 292
267 269 271 273 275 277 279 280 281 282 283 284 285 285 285 284 284 285 286 287 287 287 288 289 289 289 289 289 289 290 290 290 290 290 292 292 293 293 293 293 293 293 293
271 273 274 276 278 279 280 281 282 283 284 285 285 285 286 286 286 287 287 288 289 289 289 289 289 289 288 289 290 290 290 290 290 291 292 293 293 293 293 292 293 293 293
274 275 276 278 280 281 282 283 284 285 285 287 287 287 287 287 288 288 289 289 290 290 289 289 289 288 289 289 290 290 290 291 290 291 292 293 293 292 292 292 292 293 293
Height
5834 5836 5838 5840 5842 5844 5847 5849 5851 5852 5854 5856 5857 5858 5859 5860 5860 5861 5861 5861 5861 5861 5861 5861 5860 5860 5859 5859 5858 5857 5856 5855 5854 5853 5852 5851 5849 5848 5847 5845 5844 5843 5842
5833 5835 5836 5838 5841 5843 5845 5847 5849 5851 5852 5854 5855 5856 5857 5858 5858 5859 5859 5859 5859 5859 5859 5859 5858 5858 5857 5857 5856 5855 5854 5853 5851 5850 5849 5848 5846 5845 5843 5842 5840 5839 5838
5832 5833 5835 5837 5839 5841 5844 5845 5847 5849 5850 5852 5853 5854 5855 5856 5856 5856 5857 5857 5857 5857 5857 5856 5856 5855 5855 5854 5853 5852 5851 5849 5848 5847 5845 5844 5842 5841 5839 5838 5836 5835 5833
5830 5832 5834 5836 5838 5840 5842 5843 5845 5847 5848 5849 5851 5852 5852 5853 5854 5854 5854 5854 5854 5854 5854 5853 5853 5852 5851 5850 5849 5848 5847 5846 5844 5843 5841 5840 5838 5837 5835 5833 5832 5830 5828
5828 5830 5832 5834 5836 5838 5840 5841 5843 5844 5845 5847 5848 5849 5850 5850 5851 5851 5851 5851 5851 5851 5851 5850 5849 5848 5848 5847 5845 5844 5843 5841 5840 5838 5837 5835 5834 5832 5830 5828 5826 5825 5823
5827 5828 5830 5832 5834 5835 5837 5838 5840 5842 5843 5844 5845 5846 5847 5847 5848 5848 5848 5848 5848 5847 5847 5846 5845 5844 5843 5842 5841 5840 5838 5837 5835 5833 5832 5830 5828 5826 5824 5822 5820 5819 5817
5825 5826 5828 5830 5831 5833 5835 5836 5838 5839 5840 5841 5842 5843 5843 5844 5844 5844 5844 5844 5844 5843 5842 5841 5841 5840 5838 5837 5836 5835 5833 5831 5830 5828 5826 5824 5822 5820 5818 5816 5814 5812 5809
5822 5824 5826 5827 5829 5831 5832 5833 5835 5836 5837 5838 5838 5839 5839 5840 5840 5840 5840 5839 5839 5838 5838 5837 5836 5834 5833 5832 5830 5829 5827 5825 5823 5821 5820 5818 5816 5814 5811 5809 5807 5805 5802
5820 5821 5823 5825 5826 5828 5829 5830 5831 5832 5833 5834 5834 5835 5835 5835 5835 5835 5835 5834 5834 5833 5832 5831 5830 5828 5827 5825 5824 5822 5820 5818 5816 5814 5812 5810 5808 5806 5803 5801 5799 5796 5794
5817 5818 5820 5821 5823 5824 5826 5827 5827 5828 5829 5829 5830 5830 5830 5830 5830 5830 5829 5828 5828 5827 5826 5824 5823 5822 5820 5818 5817 5815 5813 5811 5809 5807 5805 5802 5800 5798 5795 5792 5790 5787 5785
5812 5814 5816 5818 5819 5820 5821 5822 5823 5823 5824 5824 5824 5824 5824 5824 5824 5824 5823 5822 5821 5820 5818 5817 5816 5814 5812 5811 5809 5807 5805 5802 5800 5798 5796 5793 5791 5788 5785 5783 5780 5777 5774
5808 5810 5812 5813 5814 5815 5816 5817 5817 5818 5818 5818 5818 5818 5818 5818 5818 5817 5816 5815 5814 5813 5811 5810 5808 5807 5805 5803 5801 5798 5796 5794 5791 5789 5786 5784 5781 5778 5775 5772 5769 5766 5763
5803 5805 5806 5807 5809 5810 5811 5811 5812 5812 5812 5812 5812 5812 5812 5811 5810 5809 5808 5807 5806 5805 5803 5802 5800 5798 5796 5794 5792 5789 5787 5784 5782 5779 5776 5773 5770 5767 5764 5761 5757 5754 5751
5797 5799 5800 5802 5803 5804 5804 5805 5805 5806 5805 5805 5805 5805 5804 5804 5803 5801 5800 5799 5798 5796 5795 5793 5791 5789 5786 5784 5782 5779 5777 5774 5771 5769 5766 5763 5759 5756 5752 5749 5745 5742 5739
5791 5792 5794 5795 5796 5797 5798 5798 5798 5799 5799 5798 5798 5797 5796 5796 5795 5793 5792 5791 5789 5787 5785 5784 5781 5779 5776 5774 5771 5769 5766 5763 5760 5757 5754 5751 5747 5744 5740 5737 5733 5729 5725
5784 5786 5787 5788 5789 5790 5790 5791 5791 5791 5791 5790 5790 5789 5788 5787 5785 5784 5783 5781 5779 5777 5775 5773 5770 5768 5765 5763 5760 5757 5754 5751 5748 5745 5742 5738 5735 5731 5727 5724 5720 5716 5712
5777 5778 5779 5780 5781 5782 5783 5783 5783 5782 5782 5781 5780 5780 5779 5778 5776 5774 5772 5770 5768 5766 5764 5761 5759 5756 5753 5751 5748 5745 5742 5739 5736 5732 5729 5725 5721 5718 5714 5710 5706 5702 5698
5770 5771 5772 5773 5774 5774 5774 5774 5774 5773 5773 5772 5771 5770 5769 5768 5766 5764 5761 5759 5757 5755 5752 5750 5747 5744 5741 5738 5735 5732 5729 5726 5723 5719 5715 5712 5708 5704 5700 5696 5692 5688 5685
5762 5763 5764 5764 5765 5765 5765 5765 5764 5764 5763 5762 5761 5760 5758 5756 5754 5752 5750 5748 5745 5742 5740 5737 5734 5732 5729 5726 5722 5719 5716 5712 5709 5705 5701 5698 5694 5690 5686 5682 5678 5674 5670
5755 5756 5756 5756 5756 5756 5756 5755 5754 5754 5753 5752 5750 5749 5747 5745 5742 5740 5738 5736 5733 5730 5728 5725 5722 5719 5716 5712 5709 5705 5702 5698 5695 5691 5687 5683 5679 5675 5671 5668 5664 5659 5655
5747 5748 5748 5748 5747 5747 5746 5745 5745 5744 5742 5741 5739 5737 5735 5733 5730 5728 5725 5723 5720 5717 5714 5711 5708 5705 5702 5698 5695 5691 5687 5683 5680 5676 5673 5669 5665 5661 5657 5653 5649 5645 5641
5739 5739 5739 5739 5738 5737 5736 5735 5734 5733 5731 5729 5727 5725 5723 5720 5718 5715 5712 5710 5707 5704 5701 5698 5694 5691 5687 5684 5680 5677 5673 5669 5665 5662 5658 5654 5650 5647 5643 5639 5634 5630 5626
5730 5730 5729 5729 5728 5727 5726 5725 5723 5721 5719 5717 5715 5713 5710 5707 5705 5702 5699 5696 5693 5690 5687 5683 5680 5676 5673 5669 5666 5662 5659 5655 5651 5647 5644 5640 5636 5632 5628 5624 5620 5616 5612
5721 5720 5719 5718 5717 5716 5714 5713 5711 5709 5707 5705 5702 5699 5697 5694 5691 5688 5684 5681 5678 5675 5672 5668 5665 5662 5658 5655 5651 5648 5644 5640 5637 5633 5629 5625 5621 5618 5614 5610 5606 5602 5598
5711 5710 5709 5708 5706 5705 5703 5701 5699 5697 5695 5692 5689 5686 5682 5679 5676 5673 5670 5666 5663 5660 5657 5654 5650 5647 5644 5640 5637 5634 5630 5626 5622 5619 5615 5611 5607 5603 5600 5596 5593 5589 5585
5701 5700 5698 5697 5695 5693 5692 5689 5687 5684 5681 5678 5675 5671 5668 5665 5662 5659 5655 5652 5648 5645 5642 5639 5636 5632 5629 5626 5623 5619 5616 5613 5609 5605 5601 5597 5593 5590 5586 5583 5580 5577 5573